THORAD AGENA D DEB

Satellite information

Favourite Embed

Satellite Type and Status

DEBRISIN ORBIT

Key statistics

Satellite THORAD AGENA D DEB at a glance.

Uptime

20312

Days in orbit

Revolutions

≈ 14.6

Per day

Orbit

LEO

Low Earth Orbit

Inclination

70.1

Latest

Satellite identification and parameters

Extended collection of information and parameters for THORAD AGENA D DEB.

Object identification

Identified? True

Debris? True

Object name: THORAD AGENA D DEB

International designator: 1969-082N

Object number (NORAD): 4144

Object ID (CCSDS): 4144

Country: UNITED STATES OF AMERICA (US)

Current information (Y/N): Y

RCS size: SMALL

Orbital parameters

Period: 98.606 minutes

Inclination: 70.0768 deg

SMA: 7070.134 km

Apoapsis: 717.065 km

Periapsis: 666.933 km

RAAN: 91.1475 deg

Eccentricy: 0.0035453

Argument of periapsis: 357.2025 deg

Mean anomaly: 2.891 deg

Mean motion: 14.60364645 rev/day

Mean motion (dot): 0.00003707 rev/day2

B* drag term: 0.00077226 1/REarth

Two-line elements (TLE)

Creation date: May 11, 2025, 2:40 a.m.

Reference frame: TEME

Reference center: EARTH

Epoch: May 10, 2025, 9:31 p.m. UTC

TLE line 0: 0 THORAD AGENA D DEB

TLE line 1: 1 04144U 69082N 25130.89678756 .00003707 00000-0 77226-3 0 9999

TLE line 2: 2 04144 70.0768 91.1475 0035453 357.2025 2.8910 14.60364645907728

Live tracking on map

Real-time ground track for satellite THORAD AGENA D DEB.

In-orbit conjunctions

A list of the most updated potential collisions computed for object THORAD AGENA D DEB.

Target Orbit TCA Probability of collision Miss distance Type
CZ-6A DEB LEO 2024-12-06 19:23:34 0.000106811 178.0 (m) DEBRIS
STEX LEO 2024-10-16 15:11:04 0.000292892 885.0 (m) PAYLOAD

Associated space launch

Poppy was the follow-on ELINT system, which succeeded the Grab ELINT satellite system.

THORAD AGENA D DEB was lifted into orbit during the mission ‘Thorad SLV-2G Agena D | Poppy 8A,B,C,D’, on board a Thorad SLV-2G Agena D space rocket.

The launch took place on Sept. 30, 1969, 1:40 p.m. from Space Launch Complex 1W.

For more information about the launch, click the button.

Launch to space Thorad SLV-2G Agena D | Poppy 8A,B,C,D
Thorad SLV-2G Agena D | Poppy 8A,B,C,D

Agency: N/A

Status: Launch Successful

Launch date: Sept. 30, 1969, 1:40 p.m. UTC

Rocket: Thorad SLV-2G Agena D

Launch pad: Space Launch Complex 1W

Location: Vandenberg SFB, CA, USA

...

Latest news about this satellite

There are no fresh news available about this satellite. Check back as we update our databases every day.


Newsletter sign-up

Weekly statistics, charts and insights to help you stay on top of the space industry.